Wetbulb
33.74 33.33 33.15 33.16 33.50 33.77 33.06 32.35 31.75 31.70 31.76 31.78 31.86 31.50 31.21 30.68 30.55 29.85 29.27 28.65 27.46 27.13 27.29 26.92 26.62 26.49 25.23 25.35 25.92 25.25 24.43 24.78 24.06 23.00 24.14 23.21 21.67 20.95 21.45 21.53 22.16 21.82 20.94
33.50 33.23 32.78 32.57 32.47 32.04 31.67 31.39 31.29 30.48 30.83 30.77 30.89 30.44 30.14 29.84 28.70 27.99 27.46 27.19 26.33 26.32 26.52 26.24 25.39 27.49 24.18 24.25 23.94 23.76 23.55 23.31 24.36 22.10 21.97 20.97 19.15 19.74 19.41 18.43 20.10 21.62 19.69
33.35 32.89 31.85 31.22 30.89 30.61 30.73 30.73 30.34 29.62 29.27 29.67 29.44 28.73 28.75 28.44 27.47 27.35 27.02 26.94 26.27 25.84 25.07 23.75 23.47 24.27 23.11 22.36 22.78 22.12 22.94 23.93 22.97 22.74 20.35 20.51 19.06 17.86 17.63 17.71 17.45 17.27 19.67
32.68 31.84 30.24 29.84 30.19 30.05 30.22 29.85 29.31 28.96 28.05 27.87 27.99 28.19 28.04 27.76 27.42 27.04 26.60 26.04 25.50 25.05 24.88 23.68 22.68 22.27 22.30 21.98 21.59 21.77 22.95 21.92 21.94 20.85 19.13 17.73 16.46 17.53 16.55 13.10 12.92 14.87 14.76
31.91 30.79 30.02 29.51 29.90 29.38 28.70 28.34 28.03 27.50 27.41 27.17 26.80 26.86 27.06 27.26 28.13 26.35 26.29 24.65 23.48 22.26 22.77 23.00 23.56 24.22 26.03 24.48 21.61 19.87 20.68 19.49 19.14 18.24 16.20 15.73 13.95 12.67 10.79 12.21 11.21 11.11 12.79
32.12 30.68 30.34 28.97 28.15 27.70 27.57 27.41 27.25 26.67 25.88 25.82 25.33 25.27 25.39 27.87 31.07 30.78 27.20 24.29 23.61 22.20 21.12 21.60 22.01 22.66 24.01 24.87 24.74 24.57 22.08 18.31 16.67 15.91 14.32 12.50 11.58 10.93 11.21 9.83 8.89 6.73 4.81
30.40 29.45 29.08 28.42 27.40 27.11 27.29 26.94 26.75 25.87 25.72 25.27 25.04 25.08 24.84 25.62 30.88 30.67 29.10 24.74 23.07 21.95 21.69 21.55 21.39 21.67 20.91 20.18 20.57 19.53 19.74 21.38 19.66 14.92 12.63 10.72 10.07 10.58 10.37 8.10 8.04 7.01 6.89
29.93 29.22 28.56 27.84 27.06 26.59 26.49 26.25 25.67 25.55 25.16 24.77 24.89 25.25 24.83 25.91 30.55 30.22 27.71 22.96 21.91 21.68 21.88 22.11 20.81 20.02 20.28 19.41 17.37 15.24 13.96 14.29 14.24 13.98 12.63 12.19 12.14 12.78 10.84 9.47 7.07 5.14 4.67
30.27 29.42 28.56 27.71 26.55 26.22 25.82 25.19 24.69 25.06 25.01 25.27 25.99 25.01 24.75 25.64 30.24 29.44 25.33 22.13 21.70 20.77 21.76 21.74 21.12 19.38 20.48 20.25 16.81 14.01 11.38 11.61 15.51 16.55 15.80 15.76 15.26 15.82 13.86 7.07 -3.50 -5.81 -4.81
29.72 30.15 28.63 27.30 26.62 25.69 25.15 24.28 24.00 24.42 25.44 26.13 26.06 24.36 24.56 24.44 29.82 29.00 25.10 22.25 20.11 19.64 20.07 21.22 22.64 20.02 20.39 19.63 15.46 12.40 6.88 7.79 7.36 5.01 8.16 10.51 10.66 10.32 11.08 7.28 5.34 -6.75 -4.47
26.87 26.12 25.59 25.47 25.13 24.67 23.83 22.93 23.44 23.25 24.58 22.23 22.93 22.15 22.45 23.59 26.03 29.10 26.78 21.84 20.25 18.78 18.72 19.47 21.29 22.42 19.93 18.87 15.93 12.26 8.18 8.72 8.32 4.24 4.91 5.25 5.51 5.44 5.32 5.62 6.06 3.92 -3.00
25.11 24.46 23.10 22.69 24.96 24.50 22.57 20.81 21.72 22.39 20.87 19.10 19.69 18.64 22.20 23.16 26.13 29.20 28.28 24.81 23.66 18.88 18.57 19.13 18.69 22.50 20.46 18.25 14.05 15.39 14.01 8.79 2.44 -1.07 -3.06 -1.67 0.09 1.31 3.14 4.63 5.38 4.50 4.93
21.82 21.47 20.31 20.28 23.09 23.24 21.98 21.00 20.19 21.22 21.09 19.95 20.59 20.97 20.84 21.36 21.17 28.66 29.09 27.70 25.35 19.64 19.59 19.76 20.89 22.42 20.60 17.49 14.68 12.77 6.25 1.82 -2.09 -7.70 -6.47 -1.36 0.70 2.32 4.08 2.64 3.19 2.14 1.92
19.93 18.44 18.16 20.12 19.78 20.19 23.24 23.32 22.97 21.80 20.94 20.78 21.12 20.24 18.80 19.74 20.87 23.27 24.79 25.27 25.32 22.64 21.47 18.65 18.62 14.12 13.86 10.06 7.42 6.91 2.59 -2.29 -4.29 -7.00 -6.54 -2.06 1.20 -1.38 -4.47 -1.78 -6.96 -4.98 -12.26
18.23 18.06 18.20 19.18 20.51 20.47 22.73 22.99 23.27 23.53 23.89 21.84 21.71 21.08 18.31 18.66 20.81 23.49 21.96 16.78 13.76 16.32 4.75 0.36 0.55 -1.07 -1.91 -2.61 -5.38 -5.10 -4.47 -6.26 -6.67 -7.21 -8.45 -7.81 -5.30 -5.85 -6.56 -7.95 -9.25 -15.41 -15.89
17.90 17.21 18.59 19.82 19.44 21.14 21.75 21.31 28.10 27.27 28.47 29.23 27.84 24.19 22.03 24.46 25.74 26.51 26.08 24.66 23.23 21.32 -4.92 -7.68 -7.52 -6.03 -1.50 -3.86 -5.85 -8.00 -8.47 -6.33 -8.20 -9.37 -12.00 -11.53 -10.20 -10.65 -11.58 -12.64 -12.19 -18.01 -19.23
19.95 18.14 18.87 19.13 18.97 19.28 20.32 22.48 22.27 26.45 29.68 29.76 29.74 28.78 26.91 25.18 26.74 27.18 26.48 25.04 24.13 20.98 -8.66 -11.61 -5.37 -1.56 -3.19 -3.54 -3.89 -5.73 -6.63 -6.34 -12.55 -9.14 -11.13 -12.88 -13.96 -15.65 -15.14 -17.40 -15.28 -15.30 -18.32
17.29 16.33 18.10 18.77 19.10 19.03 20.18 21.83 23.72 23.00 23.72 24.36 29.00 29.19 29.13 27.02 27.37 27.61 27.16 25.45 19.34 18.49 -6.23 -5.31 -3.17 -4.73 -4.14 -3.90 -5.89 -6.42 -11.07 -14.35 -12.33 -12.96 -14.84 -17.26 -19.63 -18.45 -19.83 -19.47 -19.50 -22.98 -23.31
13.70 13.99 17.31 15.62 17.77 18.92 18.34 18.48 21.98 20.41 22.09 22.41 23.58 28.78 28.09 28.18 27.52 28.30 28.08 21.12 15.12 11.71 -6.05 -5.41 -4.71 -4.16 -4.02 -4.74 -5.12 -7.34 -8.52 -9.55 -12.86 -17.05 -17.42 -17.78 -20.24 -21.42 -21.95 -21.38 -20.17 -16.01 -18.56
9.05 11.24 13.81 16.59 12.36 12.72 16.32 20.37 21.94 21.19 20.75 20.82 21.59 23.24 23.82 24.32 23.65 24.16 24.77 16.30 10.96 3.11 -1.05 1.02 -3.07 -3.15 -3.94 -4.82 -7.59 -8.78 -11.25 -15.89 -14.48 -16.39 -16.52 -17.91 -18.86 -19.05 -16.35 -21.59 -23.14 -22.38 -23.29
10.17 7.83 12.80 11.20 17.48 19.82 22.38 22.04 22.08 20.36 19.90 19.72 20.58 22.34 24.32 21.59 20.85 21.29 20.71 13.16 11.35 8.59 4.50 5.03 2.68 -0.17 -4.13 -5.82 -8.28 -9.64 -9.51 -7.76 -10.24 -12.52 -16.07 -18.65 -20.60 -22.19 -18.96 -16.64 -21.31 -25.58 -25.86
9.29 11.27 14.29 18.60 20.40 22.24 21.77 20.85 19.41 19.40 19.44 16.46 14.85 15.21 26.37 21.31 18.83 17.26 17.17 16.31 14.32 10.02 8.77 6.98 4.07 2.77 0.51 -2.47 -4.51 -6.21 -6.90 -7.42 -10.42 -11.49 -13.38 -15.19 -18.14 -19.22 -23.84 -22.31 -23.07 -24.18 -25.81
10.31 11.13 11.11 9.85 14.07 14.76 16.73 18.01 18.33 18.38 17.52 13.06 13.48 16.21 20.03 20.51 14.70 15.50 13.76 7.76 6.60 7.05 5.43 6.22 4.56 0.00 -2.91 -1.94 -2.26 -2.03 -4.04 -4.44 -4.85 -8.07 -10.70 -14.19 -17.16 -17.81 -22.22 -21.70 -22.99 -26.59 -27.22
10.30 12.35 12.77 11.89 14.86 15.55 15.38 15.64 16.83 15.39 15.93 12.46 12.08 13.57 16.29 19.60 13.31 13.04 7.96 5.68 5.28 3.85 4.59 4.63 4.24 2.26 -1.79 -3.47 -3.60 -3.77 -3.19 -6.56 -8.67 -8.94 -10.59 -12.53 -14.42 -16.89 -21.35 -23.92 -23.30 -24.26 -24.05
9.10 12.11 13.41 14.15 14.54 14.34 12.37 13.05 13.08 13.83 14.60 13.01 12.50 12.45 13.27 15.19 12.71 8.77 6.06 6.07 5.30 3.04 1.95 2.19 2.27 0.42 -1.12 -2.98 -3.33 -5.14 -4.67 0.28 -8.36 -9.92 -11.61 -12.36 -13.54 -16.59 -21.09 -21.94 -22.42 -24.68 -24.88
9.67 11.34 12.51 8.76 9.63 9.40 11.05 12.22 12.99 13.19 13.91 14.11 13.22 11.01 11.56 11.35 10.85 9.65 6.42 4.98 4.23 3.95 1.86 1.12 0.26 -1.16 -2.26 -2.24 -3.85 -3.44 -3.00 -0.15 -3.12 -6.73 -10.81 -11.88 -13.70 -19.04 -22.71 -22.51 -24.92 -26.05 -24.45
MSLP
1024.28 1024.51 1024.77 1025.13 1025.46 1025.79 1026.17 1026.61 1026.84 1027.01 1027.15 1027.28 1027.40 1027.54 1027.71 1027.88 1028.00 1028.25 1028.49 1028.61 1028.68 1028.79 1028.81 1028.89 1028.96 1028.95 1029.00 1028.82 1028.64 1028.58 1028.53 1028.45 1028.59 1029.48 1029.94 1030.57 1031.01 1030.96 1030.87 1030.73 1030.50 1030.35 1030.34
1024.22 1024.52 1024.87 1025.22 1025.62 1026.03 1026.35 1026.55 1026.66 1026.92 1026.98 1027.17 1027.39 1027.67 1027.86 1028.11 1028.25 1028.35 1028.65 1028.82 1028.87 1029.04 1029.10 1029.04 1029.03 1028.99 1029.09 1029.36 1029.55 1029.57 1029.45 1029.11 1029.11 1029.99 1030.36 1031.02 1031.47 1031.35 1031.16 1031.08 1030.87 1030.56 1030.47
1023.94 1024.38 1024.90 1025.33 1025.63 1025.93 1026.20 1026.46 1026.67 1026.99 1027.26 1027.40 1027.61 1028.00 1028.19 1028.43 1028.64 1028.78 1029.01 1029.24 1029.39 1029.58 1029.61 1029.49 1029.52 1029.35 1029.26 1029.08 1028.93 1028.93 1029.49 1029.98 1030.18 1030.44 1030.86 1031.38 1031.71 1031.94 1031.52 1031.56 1031.20 1030.99 1030.49
1023.68 1024.27 1024.81 1025.14 1025.48 1025.80 1026.23 1026.64 1026.92 1027.12 1027.47 1027.79 1027.97 1028.24 1028.40 1028.55 1028.84 1028.94 1029.25 1029.48 1029.64 1030.00 1030.11 1030.28 1030.28 1030.08 1030.09 1030.15 1030.23 1030.10 1029.70 1029.38 1030.11 1030.88 1031.17 1031.67 1032.04 1032.37 1032.42 1032.22 1031.71 1031.39 1030.84
1023.62 1024.16 1024.53 1024.88 1025.27 1025.74 1026.25 1026.70 1027.08 1027.30 1027.50 1027.75 1028.07 1028.27 1028.45 1028.69 1028.78 1029.07 1029.32 1029.52 1029.84 1030.28 1030.59 1030.66 1030.69 1030.51 1030.38 1030.38 1030.64 1030.82 1030.65 1030.52 1030.69 1031.28 1031.97 1032.16 1032.04 1032.53 1033.21 1033.22 1032.51 1031.86 1031.09
1023.10 1023.59 1024.09 1024.64 1025.14 1025.60 1026.08 1026.45 1026.90 1027.12 1027.33 1027.72 1027.88 1028.18 1028.37 1028.43 1028.50 1028.82 1029.30 1029.72 1029.92 1030.33 1030.79 1031.15 1031.28 1031.13 1031.00 1031.01 1031.16 1030.99 1031.09 1031.35 1031.41 1031.88 1032.12 1032.81 1032.80 1032.92 1033.23 1033.73 1033.30 1032.84 1032.33
1022.64 1023.36 1023.83 1024.37 1024.93 1025.27 1025.74 1026.21 1026.60 1026.94 1027.30 1027.66 1027.93 1028.24 1028.45 1028.59 1028.38 1028.48 1028.92 1029.48 1029.75 1030.06 1030.35 1030.74 1030.75 1031.04 1031.26 1031.50 1031.80 1032.19 1032.38 1031.92 1031.99 1032.63 1033.06 1033.69 1033.52 1033.49 1033.42 1033.60 1033.88 1033.91 1033.35
1022.25 1022.90 1023.51 1024.08 1024.64 1025.22 1025.65 1025.98 1026.51 1026.88 1027.32 1027.72 1027.89 1028.01 1028.21 1028.37 1028.31 1028.55 1029.10 1029.64 1029.92 1030.09 1030.49 1030.66 1030.92 1031.16 1031.29 1031.58 1032.25 1032.68 1033.02 1033.32 1033.19 1033.24 1033.65 1033.98 1034.01 1033.73 1033.66 1033.97 1034.35 1034.13 1033.57
1021.69 1022.17 1022.73 1023.26 1023.94 1024.61 1025.09 1025.62 1026.08 1026.65 1027.20 1027.41 1027.58 1027.86 1028.06 1028.05 1028.02 1028.34 1029.08 1029.44 1029.81 1030.12 1030.47 1030.65 1031.07 1031.38 1031.38 1031.59 1032.24 1033.00 1033.55 1033.76 1033.52 1033.44 1033.60 1033.83 1033.88 1033.55 1033.66 1034.37 1034.71 1034.43 1034.10
1020.74 1021.19 1021.88 1022.75 1023.48 1024.11 1024.61 1025.31 1025.76 1026.12 1026.48 1027.00 1027.29 1027.55 1027.75 1027.97 1027.90 1028.30 1028.99 1029.59 1029.79 1030.14 1030.58 1030.89 1031.03 1031.40 1031.60 1031.95 1032.62 1033.17 1033.64 1034.12 1034.30 1034.62 1034.53 1034.45 1034.47 1034.34 1034.22 1034.46 1034.58 1034.79 1034.68
1020.16 1021.00 1021.67 1022.26 1022.90 1023.50 1024.24 1024.79 1025.16 1025.74 1026.26 1026.69 1026.96 1027.19 1027.49 1027.83 1027.94 1028.00 1028.60 1029.43 1029.57 1030.10 1030.55 1030.82 1030.96 1031.15 1031.71 1031.96 1032.68 1033.20 1033.46 1034.23 1034.14 1034.71 1034.91 1034.96 1035.01 1034.93 1034.81 1034.74 1034.67 1034.70 1034.68
1020.16 1020.93 1021.58 1022.16 1022.75 1023.38 1024.00 1024.64 1025.11 1025.66 1026.22 1026.51 1026.92 1027.42 1027.47 1027.66 1027.71 1027.56 1028.13 1028.87 1029.19 1029.80 1030.22 1030.69 1031.08 1031.04 1031.58 1032.12 1032.94 1032.79 1033.20 1034.09 1034.69 1035.04 1035.22 1035.30 1035.29 1035.16 1034.99 1034.81 1034.70 1034.72 1034.55
1020.57 1021.09 1021.56 1022.12 1022.60 1022.97 1023.75 1024.44 1024.97 1025.26 1025.52 1025.98 1026.50 1027.06 1027.24 1027.43 1027.72 1027.37 1027.64 1027.97 1028.62 1029.65 1029.92 1030.40 1030.68 1030.76 1031.45 1032.00 1032.78 1033.15 1034.22 1034.64 1035.01 1035.59 1035.86 1035.61 1035.44 1035.21 1034.99 1034.87 1034.69 1034.64 1034.40
1020.91 1021.48 1021.81 1022.01 1022.39 1022.73 1023.18 1023.58 1023.95 1024.34 1024.65 1025.17 1025.49 1026.18 1026.53 1027.01 1027.26 1027.35 1027.52 1027.76 1028.21 1029.12 1029.58 1030.09 1030.54 1031.64 1032.24 1032.88 1033.44 1033.86 1034.45 1035.01 1035.32 1035.56 1035.80 1035.72 1035.43 1035.52 1035.44 1035.23 1035.27 1035.05 1034.85
1020.97 1021.24 1021.50 1021.81 1022.04 1022.29 1022.35 1022.53 1022.77 1022.86 1023.04 1023.64 1024.20 1024.76 1025.46 1026.00 1025.92 1026.41 1026.92 1027.63 1028.37 1029.31 1030.69 1031.48 1031.85 1032.76 1033.18 1033.69 1034.49 1034.81 1034.98 1035.31 1035.54 1035.73 1035.93 1035.99 1035.88 1035.78 1035.70 1035.71 1035.67 1035.54 1035.81
1020.86 1021.13 1021.25 1021.54 1021.85 1022.07 1022.21 1022.48 1022.38 1022.33 1022.64 1022.53 1023.21 1023.68 1024.21 1024.54 1025.11 1025.53 1026.13 1026.88 1027.76 1028.61 1030.78 1032.11 1032.60 1033.05 1033.37 1033.90 1034.44 1034.71 1034.83 1035.17 1035.54 1035.79 1036.01 1036.11 1036.03 1035.91 1035.90 1035.88 1035.92 1035.98 1036.06
1020.18 1020.42 1020.75 1020.99 1021.24 1021.49 1021.70 1021.77 1021.78 1021.81 1021.96 1022.07 1022.35 1022.74 1023.41 1023.88 1024.26 1024.66 1025.37 1026.24 1027.11 1028.06 1030.26 1031.31 1031.96 1032.56 1032.91 1033.35 1033.76 1034.12 1034.49 1034.76 1035.20 1035.60 1035.88 1035.97 1035.90 1035.85 1036.01 1036.17 1036.17 1036.05 1035.84
1019.84 1019.89 1020.02 1020.28 1020.39 1020.59 1020.84 1020.80 1021.01 1021.30 1021.25 1021.40 1021.71 1022.07 1022.57 1023.31 1023.55 1023.94 1024.74 1025.77 1026.75 1027.48 1029.30 1030.66 1031.36 1031.91 1032.32 1032.70 1033.05 1033.37 1033.79 1034.52 1035.02 1035.31 1035.59 1035.66 1035.66 1035.80 1036.26 1036.29 1036.26 1036.39 1036.03
1019.50 1019.78 1019.72 1019.84 1019.83 1019.99 1020.31 1020.36 1020.57 1020.80 1020.89 1021.10 1021.48 1021.57 1021.97 1022.59 1023.08 1023.39 1023.93 1024.73 1025.98 1027.43 1028.62 1029.59 1030.20 1030.92 1031.37 1031.78 1032.13 1032.50 1033.00 1033.65 1034.22 1034.75 1035.00 1035.15 1035.29 1035.55 1035.80 1035.65 1035.77 1035.76 1035.88
1019.05 1019.22 1019.32 1019.50 1019.56 1019.81 1019.79 1020.02 1020.11 1020.27 1020.52 1020.74 1020.92 1021.01 1021.57 1022.31 1022.56 1022.84 1023.33 1024.26 1025.36 1026.52 1027.61 1028.50 1029.18 1029.82 1030.42 1030.92 1031.33 1031.77 1032.33 1032.92 1033.47 1034.00 1034.27 1034.52 1034.78 1034.90 1035.01 1035.19 1035.35 1035.72 1035.54
1018.70 1018.95 1018.81 1019.24 1019.20 1019.21 1019.22 1019.40 1019.53 1019.81 1020.00 1020.21 1020.32 1020.52 1020.83 1021.36 1021.97 1022.48 1022.99 1023.92 1024.71 1025.67 1026.64 1027.47 1028.24 1028.88 1029.54 1030.15 1030.52 1031.02 1031.52 1031.99 1032.45 1032.96 1033.42 1033.79 1034.16 1034.43 1034.32 1034.47 1034.58 1034.65 1034.70
1018.47 1018.58 1018.62 1018.67 1018.66 1018.62 1018.68 1018.93 1019.15 1019.32 1019.51 1019.87 1020.25 1020.43 1020.44 1021.06 1021.55 1022.12 1022.65 1023.28 1024.00 1024.72 1025.43 1026.22 1027.03 1027.61 1028.15 1028.81 1029.32 1029.96 1030.53 1030.97 1031.34 1031.86 1032.39 1032.89 1033.32 1033.60 1033.81 1033.98 1034.05 1034.18 1034.32
1018.26 1018.32 1018.31 1018.34 1018.33 1018.27 1018.39 1018.52 1018.67 1018.85 1019.06 1019.37 1019.82 1020.15 1020.16 1020.30 1021.12 1021.61 1022.25 1022.93 1023.54 1024.22 1024.88 1025.38 1026.00 1026.79 1027.25 1027.60 1027.98 1028.43 1029.08 1029.31 1029.72 1030.46 1031.18 1031.88 1032.49 1032.91 1033.19 1033.38 1033.48 1033.91 1034.18
1017.94 1018.00 1018.07 1018.06 1018.06 1018.10 1018.22 1018.26 1018.30 1018.45 1018.68 1019.04 1019.38 1019.58 1019.68 1019.75 1020.52 1021.07 1021.76 1022.44 1023.17 1023.67 1024.10 1024.56 1024.95 1025.46 1026.22 1026.76 1027.10 1027.48 1027.85 1028.26 1028.83 1029.35 1029.95 1030.84 1031.48 1032.03 1032.36 1032.67 1032.90 1033.13 1033.37
1017.76 1017.76 1017.73 1017.74 1017.76 1017.83 1017.96 1018.03 1018.13 1018.25 1018.42 1018.62 1018.88 1019.09 1019.22 1019.43 1019.89 1020.42 1020.96 1021.71 1022.35 1023.01 1023.45 1023.79 1024.16 1024.62 1025.15 1025.62 1026.07 1026.54 1026.96 1027.40 1028.07 1028.60 1029.30 1029.96 1030.52 1031.12 1031.62 1031.98 1032.26 1032.49 1032.86
1017.65 1017.61 1017.45 1017.37 1017.45 1017.56 1017.66 1017.75 1017.79 1017.92 1018.02 1018.10 1018.25 1018.55 1018.76 1019.06 1019.41 1019.88 1020.43 1021.01 1021.54 1021.97 1022.44 1022.97 1023.38 1023.78 1024.28 1024.74 1025.12 1025.66 1026.21 1026.71 1027.23 1027.76 1028.53 1029.25 1029.87 1030.52 1031.04 1031.26 1031.58 1031.95 1032.26
Wind_Speed
6 5 6 6 6 6 5 5 5 4 4 5 4 4 4 4 4 5 5 5 5 5 4 5 5 5 4 4 4 4 4 3 3 3 3 3 4 5 5 6 5 4 5
6 6 6 6 6 6 6 6 6 6 5 5 5 5 4 4 4 4 4 4 5 4 4 5 4 3 5 5 4 5 4 5 3 3 2 2 4 4 4 5 6 7 7
7 7 6 6 6 6 6 6 6 5 5 5 5 4 4 4 4 4 5 5 5 4 4 5 4 4 4 3 4 4 3 4 4 3 2 3 2 5 2 4 5 6 6
7 7 7 7 7 6 6 6 6 6 6 4 4 4 4 4 4 5 5 5 5 5 6 6 5 5 4 4 5 5 4 4 4 3 3 2 2 2 2 5 5 5 4
7 7 8 7 6 6 6 6 6 6 5 5 5 4 4 4 3 5 5 5 6 6 5 6 6 7 11 8 3 4 4 3 3 4 2 1 2 3 6 5 4 6 3
9 8 7 7 7 7 7 7 7 6 6 6 5 5 5 2 7 8 6 5 6 7 6 5 5 6 8 12 13 14 9 4 5 1 2 1 4 3 3 4 4 4 5
8 7 8 7 7 8 7 7 7 7 6 6 5 5 5 4 7 8 9 5 6 6 7 6 5 5 5 5 9 11 12 13 12 4 4 3 2 4 3 3 4 3 3
8 8 7 8 7 6 7 7 6 5 6 5 6 6 5 4 9 9 9 5 5 5 5 5 5 5 4 4 5 6 7 7 7 5 5 3 1 2 4 4 5 5 5
10 10 10 10 9 9 9 8 5 6 5 5 5 6 7 5 12 12 9 6 7 6 5 5 6 4 4 4 4 5 4 4 7 7 5 4 5 7 7 2 3 4 3
10 12 9 9 9 9 7 8 4 4 5 6 6 6 7 6 13 13 10 4 6 5 5 7 8 6 6 5 4 4 4 2 2 3 3 3 5 5 8 5 2 1 2
6 6 7 7 8 7 7 4 6 5 6 5 7 5 6 7 8 15 14 5 5 5 4 4 3 9 7 6 5 3 4 4 3 2 1 2 2 3 2 3 3 2 1
7 7 7 7 6 6 7 4 5 7 7 6 6 4 4 5 10 15 16 13 11 6 6 5 4 10 8 7 4 7 6 6 3 3 2 1 1 2 2 2 3 4 4
6 6 6 5 6 7 8 7 5 7 7 7 8 7 6 4 3 15 17 16 14 6 5 9 12 11 11 7 7 6 5 2 3 2 1 1 2 2 3 3 2 3 5
5 5 5 7 6 6 6 7 8 8 8 8 8 8 6 6 6 5 5 8 12 9 10 6 7 8 10 8 4 3 2 2 3 2 2 2 2 2 1 2 2 2 3
5 5 5 5 8 7 8 9 9 9 11 10 9 9 9 8 11 14 11 6 4 8 6 4 3 3 2 2 1 2 2 2 2 2 1 2 2 1 1 1 1 2 1
6 5 5 6 6 6 6 5 15 13 19 19 17 12 8 13 17 22 22 19 18 18 4 3 3 3 5 4 4 3 2 4 3 3 2 2 3 2 1 1 0 0 2
8 6 5 6 6 7 6 7 7 11 18 20 21 20 18 15 19 23 22 20 20 19 3 3 4 5 5 5 5 4 4 4 4 4 3 4 3 2 1 1 1 1 2
6 6 6 6 6 6 7 8 7 8 9 8 19 16 20 18 20 22 22 19 10 12 4 5 5 5 5 5 4 4 3 3 3 3 3 3 3 3 1 2 1 1 2
5 4 5 4 5 6 5 4 7 7 7 7 4 13 15 20 20 22 25 9 10 7 4 4 5 5 5 5 5 4 4 4 4 3 4 4 3 3 3 3 2 3 3
4 6 6 5 3 4 4 6 7 7 7 7 7 9 7 9 9 10 11 7 8 5 6 6 5 5 5 5 5 4 4 3 4 4 4 4 4 4 4 3 3 2 3
4 3 5 4 6 6 7 8 7 7 8 8 8 8 16 11 9 9 9 7 8 7 7 7 6 6 5 5 5 5 5 5 5 5 4 4 4 3 4 3 3 3 3
3 4 5 7 6 6 7 6 7 7 7 7 5 5 23 9 8 8 9 8 8 8 8 8 7 8 8 8 7 6 6 7 5 5 5 5 4 4 3 3 3 2 2
4 4 3 2 3 4 6 6 7 7 7 6 7 7 8 9 8 9 8 6 6 7 6 7 7 6 5 6 7 8 8 8 7 6 6 5 5 4 4 4 3 2 2
4 4 4 4 4 5 6 6 7 7 7 7 7 7 9 8 8 10 6 6 6 6 7 7 7 8 7 7 6 6 6 4 5 6 7 6 5 5 4 3 3 4 3
3 4 5 6 6 6 5 5 5 6 7 7 7 7 7 7 7 7 6 7 7 7 8 7 6 8 10 11 9 9 8 11 7 7 5 6 7 7 4 3 3 3 2
3 4 5 3 4 4 5 6 7 7 8 8 7 7 8 8 7 7 7 8 8 7 7 7 8 10 10 9 10 10 10 11 10 10 6 6 6 4 4 4 4 3 3
Wind_Direction
138 132 129 133 129 120 115 120 123 116 117 105 103 100 97 89 89 89 85 83 81 72 61 67 56 44 31 28 27 24 16 5 92 78 79 74 48 35 25 15 5 8 357
158 151 152 144 133 129 135 146 145 137 133 138 122 111 103 94 93 106 104 110 114 105 86 75 59 67 53 39 30 23 23 14 50 99 99 78 56 11 25 29 3 359 348
167 163 155 156 155 161 164 156 144 133 130 125 124 127 117 109 101 100 107 103 91 81 73 67 42 66 76 96 110 107 84 40 18 47 93 55 67 22 352 358 354 350 349
170 163 169 177 175 172 159 149 144 147 139 135 128 128 125 120 131 125 124 115 98 76 66 59 46 45 35 51 43 17 63 92 82 86 93 103 59 18 350 351 342 344 334
168 175 188 183 174 159 151 154 155 148 145 144 138 138 141 146 156 150 148 132 116 96 80 81 63 59 63 63 64 25 33 55 66 72 49 53 75 37 5 338 311 325 307
184 191 173 172 168 167 166 168 161 154 150 154 161 167 171 179 180 170 150 144 131 122 113 100 86 64 68 71 68 65 63 50 61 68 72 27 56 44 8 331 340 358 341
176 180 183 175 177 182 171 162 168 165 155 169 169 169 173 173 186 179 163 154 147 151 148 152 143 131 113 97 80 68 50 54 65 55 83 27 41 18 354 349 357 328 280
185 187 182 180 181 168 172 174 170 161 167 166 176 177 168 191 185 181 150 130 134 135 147 153 133 131 141 130 111 85 71 62 60 63 72 66 93 56 43 14 329 314 294
197 192 190 182 177 178 183 173 165 155 173 180 179 172 175 186 186 179 151 141 137 131 122 134 129 128 143 136 130 119 94 60 53 59 67 51 36 30 47 39 1 27 323
194 200 182 172 177 186 172 170 154 163 174 176 177 178 177 174 189 187 165 158 148 142 126 132 143 143 148 151 154 153 137 115 77 40 13 31 38 15 28 33 16 99 295
149 147 160 169 173 167 162 161 165 162 156 165 173 176 173 177 193 192 183 175 163 148 160 157 142 153 151 152 134 129 162 139 94 85 38 50 35 23 7 2 4 358 217
151 160 163 162 165 164 163 166 160 157 166 173 162 170 180 181 196 202 202 189 182 165 171 157 162 172 165 137 129 122 127 117 89 72 62 359 333 315 316 321 353 335 304
144 166 167 155 161 160 166 170 158 175 178 179 179 186 187 185 197 211 209 205 201 181 157 168 180 192 179 158 147 133 92 97 104 90 178 249 252 278 306 316 308 302 284
150 165 165 171 172 170 172 179 184 187 185 187 190 195 182 185 197 212 194 198 206 179 184 173 173 132 136 127 92 108 115 115 144 161 195 256 290 305 306 346 321 326 357
176 180 183 177 183 185 198 193 199 204 193 191 200 188 177 196 204 194 179 172 141 151 108 67 75 93 116 118 85 154 140 129 149 174 164 242 257 261 273 345 324 343 114
187 190 190 186 194 198 199 220 224 215 214 213 205 192 194 205 200 200 200 192 179 162 75 130 171 169 180 181 193 208 195 189 197 169 195 221 235 234 257 319 352 208 276
212 191 193 195 191 192 193 202 211 225 224 223 221 214 203 199 202 200 200 196 188 171 138 170 174 186 192 194 196 192 195 194 163 179 189 219 219 241 256 293 276 267 294
219 201 190 198 197 191 197 201 203 203 208 206 222 216 208 206 207 201 194 185 190 184 156 171 193 188 196 199 196 192 189 156 173 188 199 211 210 198 228 255 253 251 284
204 213 208 195 190 195 187 183 196 199 207 204 188 212 206 202 210 203 193 189 186 196 165 168 176 188 199 196 199 191 179 183 184 180 210 203 203 184 241 238 245 243 270
205 206 191 196 167 169 173 192 200 201 200 197 198 202 173 180 201 200 202 173 176 167 164 182 187 189 195 192 188 184 187 182 190 197 212 202 211 205 231 232 222 244 232
198 189 182 168 181 194 200 207 208 201 203 201 203 192 184 187 194 199 200 172 183 180 178 187 187 197 194 190 179 181 194 203 200 201 196 209 197 218 219 233 238 232 240
191 194 190 201 200 205 210 204 200 200 200 193 194 195 201 192 192 194 199 193 184 180 180 184 189 196 196 193 189 187 199 211 203 197 197 200 203 216 207 221 237 235 243
196 194 190 192 196 186 193 197 197 200 198 190 187 192 206 195 194 200 197 181 169 171 172 178 185 191 186 190 185 187 193 209 207 178 189 193 198 208 197 217 221 249 226
200 200 204 203 198 200 205 204 205 201 192 188 191 198 203 209 191 202 187 175 176 178 176 182 189 188 184 192 193 195 202 180 166 185 177 177 195 198 195 206 205 216 233
210 209 205 205 205 206 201 204 204 202 199 195 201 202 204 206 193 191 180 179 180 176 190 190 189 193 196 193 196 196 196 199 181 173 169 176 188 191 192 193 200 208 202
231 225 221 196 205 199 203 209 212 209 212 209 208 203 204 205 204 191 182 184 187 193 186 188 196 198 196 203 204 199 194 196 187 179 168 176 182 184 181 202 210 200 216